Hourly Data Report for September 21, 2020

OTTAWA INTL A
ONTARIO
Current Station Operator: NAVCAN

45°19'00.000" N
75°40'00.000" W
114.90 m
6106001
71628
YOW

Download Data

Hourly Data (September 2020)
Hourly Data Report for September 21, 2020
TIME
LST
Temp Definition
°C
Dew Point Definition
°C
Rel Hum Definition
%
Precip. Amount Definition
mm

Wind Dir Definition
10's deg

Wind Spd Definition
km/h
Visibility Definition
km
Stn Press Definition
kPa
Hmdx Definition


Wind Chill Definition


Weather Definition


00:00 5.0 -1.1 65   15 5 24.1 102.19     LegendNANA
01:00 2.6 -0.2 81   5 8 24.1 102.21     Clear
02:00 2.3 0.0 84   26 3 24.1 102.22     LegendNANA
03:00 0.8 -0.3 92   5 6 24.1 102.22     LegendNANA
04:00 1.8 0.9 94   5 10 24.1 102.22     Clear
05:00 1.2 0.4 95   7 8 24.1 102.25     LegendNANA
06:00 0.2 -1.2 90   7 6 24.1 102.28     LegendNANA
07:00 1.8 0.6 92   36 2 24.1 102.33     Clear
08:00 6.4 3.0 79   8 7 24.1 102.35     LegendNANA
09:00 9.7 4.7 71   8 4 24.1 102.37     LegendNANA
10:00 12.7 4.4 57   15 7 24.1 102.36     Clear
11:00 14.2 2.7 45   14 4 24.1 102.26     LegendNANA
12:00 15.4 2.7 42   11 8 24.1 102.18     LegendNANA
13:00 16.2 2.2 39   23 7 24.1 102.08     Clear
14:00 17.6 5.0 43   6 6 24.1 101.98     LegendNANA
15:00 17.2 2.5 37   36 3 24.1 101.89     LegendNANA
16:00 17.1 3.6 40   11 12 24.1 101.82     Clear
17:00 15.9 2.7 41   13 11 24.1 101.77     LegendNANA
18:00 12.1 4.4 59   9 8 24.1 101.71     LegendNANA
19:00 9.3 2.9 64   11 11 24.1 101.68     Mainly Clear
20:00 8.2 1.6 63   14 11 24.1 101.66     LegendNANA
21:00 7.9 0.7 60   15 8 24.1 101.61     LegendNANA
22:00 8.0 1.4 63   12 8 24.1 101.57     Mainly Clear
23:00 7.1 0.8 64   11 7 24.1 101.53     LegendNANA

Notes on Data Quality.

Legend

  • E = Estimated
  • M = Missing
  • NA = Not Available*
  • [empty] = Indicates an unobserved value
Date modified: